"Time","Temp","Dewpoint","Humidity","Pressure","Direction","Speed","Gust","Precip","PrecipRate"
"00:04:57","46.1","37.6","72","30.13","330","0","0","0.00","0.00"
"00:09:57","46.1","37.6","72","30.13","330","0","0","0.00","0.00"
"00:14:57","45.9","37.4","72.3","30.13","330","0","0","0.00","0.00"
"00:19:59","45.5","37.5","73.6","30.13","330","0","0","0.00","0.00"
"00:24:57","45","37.2","74","30.13","330","0","0","0.00","0.00"
"00:29:59","44.7","37.1","74.5","30.13","330","0.7","2.3","0.00","0.00"
"00:34:57","44.7","36.9","74","30.13","330","0.1","1.2","0.00","0.00"
"00:39:56","44.7","36.7","73.3","30.13","330","0","0","0.00","0.00"
"00:44:58","44.4","36.7","74.1","30.13","330","0","0","0.00","0.00"
"00:49:56","44.1","36.7","75","30.13","330","0.4","2.3","0.00","0.00"
"00:54:58","43.7","36.5","75.8","30.13","330","0.1","1.2","0.00","0.00"
"00:59:55","43.5","36.4","76","30.13","330","0","1","0.00","0.00"
"01:04:57","43.7","36.6","76","30.13","330","0","0","0.00","0.00"
"01:09:59","44","36.6","75.2","30.13","330","0","0","0.00","0.00"
"01:14:57","44.1","36.7","75","30.13","330","0","0","0.00","0.00"
"01:19:59","44","36.6","75","30.12","330","0","0","0.00","0.00"
"01:24:57","44","36.6","75","30.12","330","0","0","0.00","0.00"
"01:29:59","44.1","36.7","75","30.12","330","0","0","0.00","0.00"
"01:34:57","43.8","36.6","75.4","30.12","330","0","0","0.00","0.00"
"01:39:56","43.5","36.4","76.2","30.12","330","0","0","0.00","0.00"
"01:44:58","43.1","36.6","77.4","30.13","330","0","0","0.00","0.00"
"01:49:56","42.8","36.6","78.5","30.13","330","0","0","0.00","0.00"
"01:54:58","42.6","36.5","79","30.13","330","0","0","0.00","0.00"
"01:59:59","42.4","36.2","78.5","30.14","330","0","0","0.00","0.00"
"02:04:57","42.4","36","78","30.14","330","0","0","0.00","0.00"
"02:09:59","42.5","36.1","78.2","30.14","330","0","0","0.00","0.00"
"02:14:58","42.3","36","78.2","30.14","330","0","0","0.00","0.00"
"02:19:56","42.1","36.1","79","30.14","330","0","0","0.00","0.00"
"02:24:58","42","36","79","30.14","330","0","0","0.00","0.00"
"02:29:56","41.8","35.7","78.8","30.14","330","0","0","0.00","0.00"
"02:34:57","41.8","35.4","78","30.14","330","0","0","0.00","0.00"
"02:39:56","42.1","35.7","78","30.14","330","0","0","0.00","0.00"
"02:44:58","42","35.8","78.4","30.14","330","0","0","0.00","0.00"
"02:49:56","41.9","35.9","79","30.14","330","0","0","0.00","0.00"
"02:54:58","41.8","35.8","79","30.14","330","0","0","0.00","0.00"
"02:59:56","41.6","35.4","78.5","30.14","330","0","0","0.00","0.00"
"03:04:58","41.6","35.6","79","30.14","330","0","0","0.00","0.00"
"03:09:56","41.4","35.5","79.2","30.14","330","0","0","0.00","0.00"
"03:14:59","41.3","35.4","79.3","30.14","330","0","0","0.00","0.00"
"03:19:57","41.2","35.2","79.2","30.13","330","0","0","0.00","0.00"
"03:24:58","41","35.3","80","30.13","330","0","0","0.00","0.00"
"03:29:56","40.9","35.2","80","30.13","330","0","0","0.00","0.00"
"03:34:58","40.8","35.1","80","30.13","330","0","0","0.00","0.00"
"03:39:57","40.7","35","80","30.13","330","0","0","0.00","0.00"
"03:44:59","40.6","34.9","80.1","30.14","330","0","0","0.00","0.00"
"03:49:57","40.4","35.1","81.1","30.14","330","0","0","0.00","0.00"
"03:54:59","40.2","35.1","82","30.14","330","0","0","0.00","0.00"
"03:59:56","40","34.9","82","30.14","330","0","0","0.00","0.00"
"04:04:58","40","34.9","82","30.13","330","0","0","0.00","0.00"
"04:09:56","40","34.9","82","30.13","330","0","0","0.00","0.00"
"04:14:59","40.1","35","82","30.13","330","0","0","0.00","0.00"
"04:19:53","40","35.2","82.7","30.13","330","0","0","0.00","0.00"
"04:24:59","40","35.1","82.4","30.13","330","0","0","0.00","0.00"
"04:29:57","40","35.3","83","30.13","330","0","0","0.00","0.00"
"04:34:59","40","35.3","83","30.12","330","0","0","0.00","0.00"
"04:39:58","40","35.3","83","30.12","330","0","0","0.00","0.00"
"04:44:56","40","35.3","83","30.12","330","0","0","0.00","0.00"
"04:49:57","39.9","35.2","83","30.12","330","0","0","0.00","0.00"
"04:54:59","39.8","35.1","83","30.12","330","0","0","0.00","0.00"
"04:59:57","39.8","35.4","83.9","30.13","330","0","0","0.00","0.00"
"05:04:58","39.8","35.3","83.6","30.13","330","0","0","0.00","0.00"
"05:09:56","39.8","35.3","83.7","30.13","330","0","0","0.00","0.00"
"05:14:59","39.7","35.1","83.1","30.13","330","0","0","0.00","0.00"
"05:19:57","39.7","35.2","83.8","30.13","330","0","0","0.00","0.00"
"05:24:59","39.6","35.4","84.8","30.13","330","0","0","0.00","0.00"
"05:29:57","39.5","35.4","85","30.14","330","0","0","0.00","0.00"
"05:34:59","39.5","35.4","85","30.14","330","0","0","0.00","0.00"
"05:39:57","39.5","35.4","85","30.14","330","0","0","0.00","0.00"
"05:44:55","39.4","35.3","85","30.15","330","0","0","0.00","0.00"
"05:49:57","39.3","35.2","85","30.15","330","0","0","0.00","0.00"
"05:54:59","39.4","35.3","85","30.15","330","0","0","0.00","0.00"
"05:59:57","39.4","35.3","85","30.15","330","0","0","0.00","0.00"
"06:04:58","39.3","35.2","85","30.15","330","0","0","0.00","0.00"
"06:09:57","39.2","35.1","85","30.15","330","0","0","0.00","0.00"
"06:14:56","39.1","35","85","30.15","330","0","0","0.00","0.00"
"06:19:58","39.1","35","85","30.15","330","0","0","0.00","0.00"
"06:24:56","39.1","35","85","30.15","330","0","0","0.00","0.00"
"06:29:57","39.1","35","85","30.15","330","0","0","0.00","0.00"
"06:34:59","39","34.9","85","30.15","330","0","0","0.00","0.00"
"06:39:58","39.2","35.1","85","30.15","330","0","0","0.00","0.00"
"06:44:56","39.3","34.9","84.1","30.16","330","0","0","0.00","0.00"
"06:49:58","39.2","34.8","84","30.16","330","0","0","0.00","0.00"
"06:54:56","39.2","34.8","84","30.16","330","0","0","0.00","0.00"
"06:59:58","39.2","34.8","84","30.17","330","0","0","0.00","0.00"
"07:04:59","39.4","35","84","30.17","330","0","0","0.00","0.00"
"07:09:57","39.3","34.8","83.6","30.17","330","0","0","0.00","0.00"
"07:14:56","39.1","34.7","84","30.17","330","0","0","0.00","0.00"
"07:19:58","39","34.6","84","30.17","330","0","0","0.00","0.00"
"07:24:56","38.9","34.6","84.3","30.17","330","0","0","0.00","0.00"
"07:29:58","38.9","34.8","85","30.18","330","0","0","0.00","0.00"
"07:34:56","39","34.9","85","30.18","330","0","0","0.00","0.00"
"07:39:59","39.2","35.1","85","30.18","330","0","0","0.00","0.00"
"07:44:57","39.5","35.3","84.8","30.19","330","0","0","0.00","0.00"
"07:49:59","39.8","35.4","84.2","30.19","330","0","0","0.00","0.00"
"07:54:56","40.1","35.7","84","30.19","330","0","0","0.00","0.00"
"07:59:58","40.7","36","83.2","30.19","330","0","0","0.00","0.00"
"08:04:55","41.5","36.6","82.6","30.19","329","0","0","0.00","0.00"
"08:09:57","41.8","36.9","82.5","30.19","329","0","0","0.00","0.00"
"08:14:59","42.6","37.1","80.6","30.20","330","0.9","3.5","0.00","0.00"
"08:19:56","44.5","37.3","75.6","30.20","352","1","3.5","0.00","0.00"
"08:24:57","46.7","37.8","71.2","30.20","55","0.3","2.3","0.00","0.00"
"08:29:59","48.5","38.3","67.9","30.20","61","0.3","3.5","0.00","0.00"
"08:34:56","49.9","38.9","65.6","30.20","61","0.3","2.3","0.00","0.00"
"08:39:59","51.2","39.1","63.1","30.20","38","0.4","3","0.00","0.00"
"08:44:56","52.2","39.4","61.7","30.21","9","1","3.5","0.00","0.00"
"08:49:59","53.1","39.3","59.3","30.21","350","1","3.5","0.00","0.00"
"08:54:56","53.8","39.7","58.8","30.21","45","0.7","4","0.00","0.00"
"08:59:57","54.3","39.4","56.9","30.21","52","0.7","3.5","0.00","0.00"
"09:04:58","54.5","39","55.7","30.21","54","0.5","3","0.00","0.00"
"09:09:56","54.7","38.6","54.5","30.21","63","1.5","4","0.00","0.00"
"09:14:59","54.8","38.4","53.8","30.22","72","1.9","4","0.00","0.00"
"09:19:56","54.9","38","52.9","30.22","88","2.5","4","0.00","0.00"
"09:24:57","54.9","38.6","54","30.22","50","1.8","5","0.00","0.00"
"09:29:59","55.3","38.2","52.5","30.22","61","1.8","5","0.00","0.00"
"09:34:56","55.8","38.8","52.7","30.22","77","2.2","6","0.00","0.00"
"09:39:58","56.1","38.4","51.4","30.22","85","2.7","7","0.00","0.00"
"09:44:55","56.2","38.6","51.5","30.23","78","2.7","6.9","0.00","0.00"
"09:49:57","56.4","38.4","50.8","30.23","55","1.9","5","0.00","0.00"
"09:54:58","56.7","38.1","49.6","30.23","31","1.8","5","0.00","0.00"
"09:59:59","57.1","38.4","49.7","30.23","350","1.4","4.6","0.00","0.00"
"10:04:56","57.4","38.4","48.9","30.23","77","2.6","6","0.00","0.00"
"10:09:58","57.6","39.4","50.5","30.23","68","2.1","5","0.00","0.00"
"10:14:56","57.7","38.8","49.3","30.23","50","2","4.6","0.00","0.00"
"10:19:57","57.9","38.5","48.3","30.23","256","1.3","6","0.00","0.00"
"10:24:58","58","38.2","47.6","30.23","49","1.5","5.8","0.00","0.00"
"10:29:59","58.2","38.2","47.3","30.24","33","1.8","5","0.00","0.00"
"10:34:57","58.3","37.9","46.7","30.24","68","2.9","6","0.00","0.00"
"10:39:59","58.4","38.3","47.1","30.24","83","3.1","6","0.00","0.00"
"10:44:56","58.3","37.9","46.6","30.24","66","2.3","7","0.00","0.00"
"10:49:56","58.5","38.1","46.5","30.23","60","2.2","5","0.00","0.00"
"10:54:57","58.8","38.4","46.7","30.23","68","3.1","6","0.00","0.00"
"10:59:58","59","38.2","46","30.23","69","2","5","0.00","0.00"
"11:04:59","59.3","39.1","47.1","30.23","27","1.8","5","0.00","0.00"
"11:09:57","59.9","39.4","46.6","30.23","75","2","5","0.00","0.00"
"11:14:59","60.3","39.8","46.7","30.23","60","1.8","3.5","0.00","0.00"
"11:19:57","60.5","40","46.7","30.23","65","1.4","7","0.00","0.00"
"11:24:58","60.5","39.7","46.2","30.23","68","2.5","6.9","0.00","0.00"
"11:29:59","60.6","39.9","46.5","30.23","63","2.2","4","0.00","0.00"
"11:34:56","60.6","39.7","46.1","30.21","342","1.9","6","0.00","0.00"
"11:39:58","61","40.4","46.7","30.21","325","1.7","6","0.00","0.00"
"11:44:59","61.4","40.5","46.1","30.22","55","2.2","5","0.00","0.00"
"11:49:56","61.6","40.7","46.2","30.22","23","1.3","4.6","0.00","0.00"
"11:54:57","61.8","40.7","45.9","30.22","1","0.9","4","0.00","0.00"
"11:59:58","62.1","40.7","45.6","30.23","29","0.9","5","0.00","0.00"
"12:04:59","62.3","41","45.6","30.23","34","1.7","5","0.00","0.00"
"12:09:57","62.5","40.5","44.4","30.23","334","1.6","4","0.00","0.00"
"12:14:59","62.6","41.1","45.3","30.23","328","2.2","6","0.00","0.00"
"12:19:56","62.8","41.2","45.1","30.22","88","2.7","5","0.00","0.00"
"12:24:57","62.6","40.6","44.4","30.22","70","2.4","6","0.00","0.00"
"12:29:58","62.8","42","46.8","30.22","51","2.3","6","0.00","0.00"
"12:34:59","63.3","42.7","47.1","30.21","84","2.1","7","0.00","0.00"
"12:39:57","63.9","41.5","44","30.21","15","2.2","6.9","0.00","0.00"
"12:44:59","63.9","41.8","44.4","30.21","79","2.4","6","0.00","0.00"
"12:49:56","63.8","42.1","45.1","30.21","78","2.1","6","0.00","0.00"
"12:54:57","63.7","41.7","44.5","30.21","66","3.3","6","0.00","0.00"
"12:59:56","63.9","41.6","44.1","30.21","48","2.3","9.2","0.00","0.00"
"13:04:57","64.2","41.5","43.6","30.21","116","2.5","6","0.00","0.00"
"13:09:59","64.7","42.8","45","30.21","48","2.7","5.8","0.00","0.00"
"13:14:57","65.1","42.7","44.2","30.21","334","2.7","7","0.00","0.00"
"13:19:58","65.5","42.4","43","30.21","346","2.8","6","0.00","0.00"
"13:24:59","65.8","43.8","44.9","30.21","75","2.8","7","0.00","0.00"
"13:29:56","65.7","42.4","42.6","30.21","55","2.1","5","0.00","0.00"
"13:34:58","65.5","42.8","43.7","30.20","58","1.8","4.6","0.00","0.00"
"13:39:56","65.6","43.3","44.3","30.20","14","1.7","4","0.00","0.00"
"13:44:57","66.3","43.6","43.8","30.21","9","2.1","4","0.00","0.00"
"13:49:58","66.7","44","44","30.21","23","1.5","4","0.00","0.00"
"13:54:59","66.7","44.2","44.2","30.21","84","2.5","6","0.00","0.00"
"13:59:57","66.9","44.2","43.8","30.21","348","2.6","8.1","0.00","0.00"
"14:04:58","67.3","43.8","42.7","30.20","357","2.1","5","0.00","0.00"
"14:09:56","67.3","44","43","30.20","58","2","4.6","0.00","0.00"
"14:14:58","67.2","43.8","42.8","30.20","352","1.7","6","0.00","0.00"
"14:19:59","67.5","44.7","43.9","30.19","61","2.1","4","0.00","0.00"
"14:24:56","67.6","44","42.5","30.19","329","1.9","6","0.00","0.00"
"14:29:57","67.8","44.2","42.7","30.19","156","2.3","5","0.00","0.00"
"14:34:59","67.9","44.4","42.8","30.18","345","2.3","5","0.00","0.00"
"14:39:56","67.9","43.8","41.8","30.18","69","3","5","0.00","0.00"
"14:44:58","67.6","43.3","41.4","30.18","11","2.3","9","0.00","0.00"
"14:49:59","67.7","43.4","41.4","30.17","335","3","9.2","0.00","0.00"
"14:54:56","68.1","44","41.7","30.17","339","2.1","6","0.00","0.00"
"14:59:57","68.5","44","41.2","30.17","57","2.1","6","0.00","0.00"
"15:04:59","68.3","44.2","41.8","30.17","88","4.5","7","0.00","0.00"
"15:09:56","67.8","43.3","41.2","30.17","17","3","9.2","0.00","0.00"
"15:14:58","67.9","43.7","41.6","30.17","18","2.1","9","0.00","0.00"
"15:19:59","68.2","43.5","41","30.16","11","2.8","7","0.00","0.00"
"15:24:56","68.4","43.6","40.7","30.16","38","3.1","7","0.00","0.00"
"15:29:57","68.5","43.8","40.8","30.16","26","1.7","5.8","0.00","0.00"
"15:34:59","68.8","44.1","40.9","30.15","12","2.4","9.2","0.00","0.00"
"15:39:56","69","44","40.6","30.15","64","2.6","6","0.00","0.00"
"15:44:58","69.1","44.2","40.8","30.15","332","1.5","5","0.00","0.00"
"15:49:59","69.5","43.7","39.4","30.15","351","2","9.2","0.00","0.00"
"15:54:56","69.6","43.8","39.3","30.15","326","1.8","7","0.00","0.00"
"15:59:57","69.5","44.2","40.1","30.15","26","1.9","8","0.00","0.00"
"16:04:54","69.3","43.2","38.9","30.15","328","4.2","9.2","0.00","0.00"
"16:09:56","69.4","44","39.9","30.15","12","2.2","7","0.00","0.00"
"16:14:58","69.6","44.4","40.4","30.15","40","2.3","6","0.00","0.00"
"16:19:59","69.6","43.7","39.2","30.15","11","1.5","3.5","0.00","0.00"
"16:24:57","69.7","44.1","39.7","30.15","28","1.3","3.5","0.00","0.00"
"16:29:58","69.8","43.4","38.6","30.15","36","0.8","2.3","0.00","0.00"
"16:34:56","69.8","43.8","39.2","30.14","37","1.3","3.5","0.00","0.00"
"16:39:58","69.8","44.3","40","30.14","46","1.6","7","0.00","0.00"
"16:44:59","69.7","43.7","39.1","30.14","333","2.7","7","0.00","0.00"
"16:49:56","69.6","43.6","39.1","30.13","351","1.6","7","0.00","0.00"
"16:54:57","69.2","43.9","40.2","30.13","62","2.6","5","0.00","0.00"
"16:59:58","68.6","43.5","40.4","30.13","42","0.8","2.3","0.00","0.00"
"17:04:55","68.4","43.1","40","30.12","56","0.6","3.5","0.00","0.00"
"17:09:57","68.2","43.6","41","30.12","42","1.1","3.5","0.00","0.00"
"17:14:59","68","43.6","41.3","30.12","57","1.7","3.5","0.00","0.00"
"17:19:56","67.8","44.2","42.5","30.12","330","0.9","3.5","0.00","0.00"
"17:24:57","68","44","42","30.12","329","0.9","4","0.00","0.00"
"17:29:59","68.3","44.5","42.3","30.12","250","1.7","3.5","0.00","0.00"
"17:34:56","68.5","44","41.2","30.12","183","1.8","5","0.00","0.00"
"17:39:58","68.9","44.7","41.7","30.12","334","2.6","7","0.00","0.00"
"17:44:59","69","44.9","42","30.12","76","1.8","4","0.00","0.00"
"17:49:56","68.6","44.3","41.5","30.12","143","1.7","4","0.00","0.00"
"17:54:57","68.3","44.6","42.4","30.12","50","1.6","5","0.00","0.00"
"17:59:59","68.2","44.3","42.2","30.12","310","1.1","3.5","0.00","0.00"
"18:04:59","68.1","44.4","42.5","30.11","292","0.6","2.3","0.00","0.00"
"18:09:57","67.9","44.1","42.2","30.11","319","1.7","5","0.00","0.00"
"18:14:59","67.5","43.8","42.3","30.11","328","1","4","0.00","0.00"
"18:19:56","67","43.2","42.2","30.11","341","1.1","3.5","0.00","0.00"
"18:24:58","66.5","43.2","43","30.11","355","0.2","2.3","0.00","0.00"
"18:29:59","66","43.5","44","30.11","355","0.4","2.3","0.00","0.00"
"18:34:57","65.6","43.4","44.4","30.11","339","0.6","3.5","0.00","0.00"
"18:39:59","65.3","43.6","45.3","30.11","6","0.7","3.5","0.00","0.00"
"18:44:56","65","43.7","46","30.12","9","0.5","2.3","0.00","0.00"
"18:49:57","64.7","43.4","46","30.12","359","0.7","2.3","0.00","0.00"
"18:54:58","64.4","43.2","46","30.12","22","1.6","4","0.00","0.00"
"18:59:56","64.2","43.2","46.4","30.12","10","1.4","4.6","0.00","0.00"
"19:04:56","63.8","43.1","46.8","30.12","26","1","4","0.00","0.00"
"19:09:58","63.5","43.2","47.6","30.12","14","1.4","4","0.00","0.00"
"19:14:57","63","43","48","30.12","344","1.5","5","0.00","0.00"
"19:19:59","62.4","43","49","30.12","332","0.9","3.5","0.00","0.00"
"19:24:57","61.9","43","49.9","30.12","315","1.8","4","0.00","0.00"
"19:29:58","61.3","42.8","50.7","30.13","332","1.9","6","0.00","0.00"
"19:34:56","60.8","42.6","51.2","30.13","338","1.5","4","0.00","0.00"
"19:39:58","60.3","42.6","51.9","30.13","346","0.8","3.5","0.00","0.00"
"19:44:52","60","42.3","52.1","30.14","347","0.8","2.3","0.00","0.00"
"19:49:57","59.6","41.9","52","30.14","345","0.7","3.5","0.00","0.00"
"19:54:59","59.2","41.1","51.1","30.14","101","1.5","4","0.00","0.00"
"19:59:57","58.8","40.8","51.1","30.14","350","1.1","2.3","0.00","0.00"
"20:04:58","58.5","40.4","51","30.14","339","1","3.5","0.00","0.00"
"20:09:56","58.2","40.1","51","30.14","279","0.6","2.3","0.00","0.00"
"20:14:59","57.8","39.8","51","30.15","218","0.6","2.3","0.00","0.00"
"20:19:56","57.5","39.3","50.6","30.15","230","1","4","0.00","0.00"
"20:24:58","57.1","37.9","48.6","30.15","289","1","3.5","0.00","0.00"
"20:29:59","56.8","36.8","47.1","30.15","17","0.9","3.5","0.00","0.00"
"20:34:57","56.5","36.4","46.8","30.15","71","0.5","2.3","0.00","0.00"
"20:39:56","56.2","36","46.6","30.15","75","0.8","2.3","0.00","0.00"
"20:44:58","55.9","35.9","47","30.15","55","0.5","3","0.00","0.00"
"20:49:59","55.7","35.8","47","30.15","341","1","5","0.00","0.00"
"20:54:57","55.7","35.8","47.1","30.15","349","1.1","3.5","0.00","0.00"
"20:59:59","55.5","35.6","47.1","30.15","56","1.2","5","0.00","0.00"
"21:04:56","55.3","35.4","47","30.15","12","1","3.5","0.00","0.00"
"21:09:58","55.1","35.2","47","30.15","35","1.3","4","0.00","0.00"
"21:14:56","54.8","35.2","47.5","30.15","73","0.8","2.3","0.00","0.00"
"21:19:58","54.6","35.2","47.8","30.15","74","0.5","3.5","0.00","0.00"
"21:24:56","54.3","35.3","48.5","30.15","74","0.4","2.3","0.00","0.00"
"21:29:57","54.1","35.3","49","30.15","74","0","1.2","0.00","0.00"
"21:34:59","53.8","35.6","49.9","30.15","74","0","1.2","0.00","0.00"
"21:39:58","53.5","35.4","50.2","30.15","74","0","1.2","0.00","0.00"
"21:44:59","53.2","35.5","51","30.16","74","0","0","0.00","0.00"
"21:49:57","52.9","35.6","51.8","30.16","74","0.2","1.2","0.00","0.00"
"21:54:59","52.5","35.5","52.1","30.16","74","0.1","1.2","0.00","0.00"
"21:59:56","52.2","35.6","53","30.16","74","0.5","2.3","0.00","0.00"
"22:04:57","51.9","35.5","53.4","30.16","74","0.1","1.2","0.00","0.00"
"22:09:56","51.6","35.7","54.5","30.16","74","0","1","0.00","0.00"
"22:14:58","51.3","35.7","55","30.17","74","0.8","2.3","0.00","0.00"
"22:19:56","51","35.5","55.2","30.17","74","0.1","1.2","0.00","0.00"
"22:24:58","50.9","36.2","57","30.17","74","0.2","2.3","0.00","0.00"
"22:29:59","50.7","35.5","55.9","30.17","73","0.5","2.3","0.00","0.00"
"22:34:57","50.6","35.4","55.8","30.17","73","0.2","2.3","0.00","0.00"
"22:39:56","50.5","34.7","54.5","30.17","73","0","1.2","0.00","0.00"
"22:44:57","50.5","35.3","55.9","30.17","73","0.1","1.2","0.00","0.00"
"22:49:59","50.3","34.9","55.3","30.17","73","0.3","2.3","0.00","0.00"
"22:54:57","50.2","34.6","55","30.17","73","0.1","1.2","0.00","0.00"
"22:59:59","50.1","34.6","55.2","30.17","73","0.4","2","0.00","0.00"
"23:04:56","50.1","34.5","55","30.17","73","0.4","2.3","0.00","0.00"
"23:09:58","50.2","34.6","55","30.17","73","0.4","2","0.00","0.00"
"23:14:57","50.2","34.6","55","30.17","73","0.5","2.3","0.00","0.00"
"23:19:58","50.2","34.7","55.2","30.15","73","0.5","2.3","0.00","0.00"
"23:24:56","50","35.7","57.9","30.15","73","0.1","1.2","0.00","0.00"
"23:29:58","49.6","35","57","30.16","73","0","0","0.00","0.00"
"23:34:59","49.3","35.8","59.7","30.16","73","0","0","0.00","0.00"
"23:39:58","48.8","36.4","62","30.16","73","0","0","0.00","0.00"
"23:44:56","48.3","35.4","60.7","30.17","73","0","0","0.00","0.00"
"23:49:58","48.1","35.6","61.9","30.17","73","0","0","0.00","0.00"
"23:54:56","47.7","35.9","63.5","30.17","73","0","0","0.00","0.00"
"23:59:58","47.4","35.4","63","30.17","73","0","0","0.00","0.00"
